Rhodes, Greece

11:33 PM EET on November 17, 2018 (GMT +0200)
Diagoras

Weather History for LGRP - November, 2018

Change the Weather History Date:

Friday, November 9, 2018

  Actual Average Record
Temperature  
Mean Temperature 67 °F -  
Max Temperature 74 °F 66 °F 78 °F (2000)
Min Temperature 60 °F 54 °F 51 °F (2006)
Cooling Degree Days 2    
Growing Degree Days 17 (Base 50)    
Moisture  
Dew Point 59 °F    
Average Humidity 81    
Maximum Humidity 100    
Minimum Humidity 50    
Precipitation  
Precipitation 0.00 in 0.14 in - ()
Sea Level Pressure  
Sea Level Pressure 29.96 in    
Wind  
Wind Speed 2 mph ()    
Max Wind Speed 7 mph    
Max Gust Speed -    
Visibility 6.2 miles    
Events Rain    
Averages and records for this station are not official NWS values.
T = Trace of Precipitation, MM = Missing Value Source: Averaged Metar Reports

Daily Weather History Graph

Daily Weather History Graph

Search for Another Location

Airport or City:

Astronomy

Nov. 09, 2018 Rise Set
Actual Time 6:38 AM EET 5:03 PM EET
Civil Twilight 6:11 AM EET 5:31 PM EET
Nautical Twilight 5:40 AM EET 6:01 PM EET
Astronomical Twilight 5:10 AM EET 6:32 PM EET
Moon 8:07 AM EET (11/9) 6:37 PM EET (11/9)
Length of Visible Light 11h 19m
Length of Day
10h 25m
Waxing Crescent, 3% of the Moon is Illuminated
Nov 9
Waxing Crescent
Nov 15
First Quarter
Nov 23
Full
Nov 30
Last Quarter
Dec 7
New

Hourly Weather History & Observations

Time (EET) Temp. Dew Point Humidity Pressure Visibility Wind Dir Wind Speed Gust Speed Precip Events Conditions
12:20 AM 62.6 °F 60.8 °F 94% 29.98 in 6.2 mi Variable 2.3 mph - N/A Rain Light Rain
12:50 AM 62.6 °F 60.8 °F 94% 29.98 in 6.2 mi Variable 3.5 mph - N/A Rain Light Rain
1:20 AM 62.6 °F 60.8 °F 94% 29.98 in 6.2 mi Variable 2.3 mph - N/A   Mostly Cloudy
1:50 AM 62.6 °F 60.8 °F 94% 29.95 in 6.2 mi Calm Calm - N/A   Scattered Clouds
2:00 AM 63 °F 61 °F 92% 29.97 in 6 mi Calm Calm - -   Partly Cloudy
2:20 AM 62.6 °F 60.8 °F 94% 29.95 in 6.2 mi Variable 3.5 mph - N/A   Scattered Clouds
2:50 AM 62.6 °F 60.8 °F 94% 29.95 in 6.2 mi Variable 3.5 mph - N/A   Scattered Clouds
3:20 AM 62.6 °F 60.8 °F 94% 29.95 in 6.2 mi Variable 3.5 mph - N/A   Scattered Clouds
3:50 AM 60.8 °F 59.0 °F 94% 29.95 in 6.2 mi Variable 2.3 mph - N/A   Scattered Clouds
4:20 AM 60.8 °F 59.0 °F 94% 29.95 in 6.2 mi Variable 3.5 mph - N/A   Scattered Clouds
4:50 AM 60.8 °F 60.8 °F 100% 29.95 in 6.2 mi Variable 3.5 mph - N/A   Mostly Cloudy
5:00 AM 61 °F 60 °F 95% 29.97 in 6 mi 3.5 mph - -   Mostly Cloudy
5:20 AM 60.8 °F 60.8 °F 100% 29.95 in 6.2 mi Variable 2.3 mph - N/A   Scattered Clouds
5:50 AM 60.8 °F 59.0 °F 94% 29.95 in 6.2 mi Variable 2.3 mph - N/A   Scattered Clouds
6:20 AM 60.8 °F 59.0 °F 94% 29.95 in 6.2 mi Variable 3.5 mph - N/A   Scattered Clouds
6:50 AM 60.8 °F 60.8 °F 100% 29.95 in 6.2 mi Calm Calm - N/A   Scattered Clouds
7:20 AM 60.8 °F 60.8 °F 100% 29.95 in 6.2 mi Calm Calm - N/A   Partly Cloudy
7:50 AM 62.6 °F 60.8 °F 94% 29.95 in 6.2 mi Calm Calm - N/A   Partly Cloudy
8:00 AM 62 °F 60 °F 91% 29.97 in 6 mi Calm Calm - -   Scattered Clouds
8:20 AM 62.6 °F 60.8 °F 94% 29.98 in 6.2 mi Calm Calm - N/A   Partly Cloudy
8:50 AM 66.2 °F 64.4 °F 94% 29.95 in 6.2 mi Calm Calm - N/A   Partly Cloudy
9:20 AM 66.2 °F 64.4 °F 94% 29.98 in 6.2 mi Calm Calm - N/A   Partly Cloudy
9:50 AM 68.0 °F 62.6 °F 83% 29.98 in 6.2 mi Variable 3.5 mph - N/A   Partly Cloudy
10:20 AM 68.0 °F 62.6 °F 83% 29.98 in 6.2 mi Variable 3.5 mph - N/A   Partly Cloudy
10:50 AM 71.6 °F 59.0 °F 64% 29.98 in 6.2 mi SSE 6.9 mph - N/A   Partly Cloudy
11:00 AM 72 °F 60 °F 56% 29.99 in 6 mi SSE 6.9 mph - -   Scattered Clouds
11:20 AM 71.6 °F 59.0 °F 64% 29.98 in 6.2 mi SSE 6.9 mph - N/A   Partly Cloudy
11:50 AM 73.4 °F 60.8 °F 65% 29.98 in 6.2 mi ESE 4.6 mph - N/A   Scattered Clouds
12:20 PM 73.4 °F 60.8 °F 65% 29.95 in 6.2 mi ESE 4.6 mph - N/A   Scattered Clouds
12:50 PM 73.4 °F 57.2 °F 57% 29.95 in 6.2 mi SE 4.6 mph - N/A   Partly Cloudy
1:20 PM 73.4 °F 57.2 °F 57% 29.95 in 6.2 mi SE 4.6 mph - N/A   Partly Cloudy
1:50 PM 73.4 °F 59.0 °F 61% 29.95 in 6.2 mi East 6.9 mph - N/A   Partly Cloudy
2:00 PM 73 °F 58 °F 50% 29.96 in 6 mi East 6.9 mph - -   Scattered Clouds
2:20 PM 73.4 °F 59.0 °F 61% 29.95 in 6.2 mi ESE 6.9 mph - N/A   Partly Cloudy
2:50 PM 71.6 °F 57.2 °F 60% 29.95 in 6.2 mi Variable 3.5 mph - N/A   Scattered Clouds
3:20 PM 71.6 °F 57.2 °F 60% 29.95 in 6.2 mi Variable 3.5 mph - N/A   Scattered Clouds
3:50 PM 69.8 °F 57.2 °F 64% 29.95 in 6.2 mi Variable 3.5 mph - N/A   Scattered Clouds
4:20 PM 69.8 °F 57.2 °F 64% 29.95 in 6.2 mi SW 4.6 mph - N/A   Partly Cloudy
4:50 PM 69.8 °F 57.2 °F 64% 29.95 in 6.2 mi Variable 2.3 mph - N/A   Partly Cloudy
5:00 PM 69 °F 57 °F 58% 29.96 in 6 mi 2.3 mph - -   Scattered Clouds
5:20 PM 66.2 °F 59.0 °F 78% 29.95 in 6.2 mi Variable 2.3 mph - N/A   Scattered Clouds
6:50 PM 64.4 °F 59.0 °F 83% 29.98 in 6.2 mi Variable 3.5 mph - N/A   Scattered Clouds
7:20 PM 64.4 °F 59.0 °F 83% 29.98 in 6.2 mi Variable 2.3 mph - N/A   Scattered Clouds
7:50 PM 64.4 °F 59.0 °F 83% 29.98 in 6.2 mi Variable 3.5 mph - N/A   Scattered Clouds
8:00 PM 64 °F 58 °F 77% 30.00 in 6 mi 3.5 mph - -   Partly Cloudy
8:20 PM 64.4 °F 59.0 °F 83% 29.98 in 6.2 mi Variable 3.5 mph - N/A   Scattered Clouds
8:50 PM 62.6 °F 57.2 °F 82% 29.98 in 6.2 mi Calm Calm - N/A   Partly Cloudy
9:20 PM 62.6 °F 57.2 °F 82% 29.98 in 6.2 mi Calm Calm - N/A   Partly Cloudy
9:50 PM 62.6 °F 57.2 °F 82% 29.98 in 6.2 mi Variable 1.2 mph - N/A   Scattered Clouds
10:50 PM 62.6 °F 57.2 °F 82% 29.98 in 6.2 mi Variable 1.2 mph - N/A   Scattered Clouds
11:20 PM 62.6 °F 57.2 °F 82% 29.98 in 6.2 mi Variable 1.2 mph - N/A   Scattered Clouds
11:50 PM 64.4 °F 59.0 °F 83% 29.98 in 6.2 mi Variable 1.2 mph - N/A   Scattered Clouds